This demonstration page uses our WeatherBlox Daily Observations layout. Learn more.

Left ArrowRight Arrow

Hourly Observations for September 1, 2019

Temp ( °F °C ) Dew Point ( °F °C ) Humidity (%) Winds ( mph kmh ) Pressure ( in mb ) Visibility ( mi km ) Precip ( " mm )
12:53 am 00:53 Mostly Clear 74 23.3 66 18.9 76 76 Calm 30.10 1019 10 16 0.00 0.00
1:53 am 01:53 Clear 73 22.8 66 18.9 79 79 Calm 30.10 1019 10 16 0.00 0.00
2:53 am 02:53 Mostly Clear 70 21.1 66 18.9 87 87 Calm 30.10 1019 10 16 0.00 0.00
3:53 am 03:53 Clear 69 20.6 66 18.9 90 90 Calm 30.09 1019 10 16 0.00 0.00
4:53 am 04:53 Partly Cloudy 69 20.6 66 18.9 90 90 N 3 6 30.09 1019 10 16 0.00 0.00
5:53 am 05:53 Clear 68 20 65 18.3 90 90 NNE 5 7 30.09 1019 10 16 0.00 0.00
6:53 am 06:53 Clear 70 21.1 66 18.9 87 87 NNE 6 9 30.10 1019 10 16 0.00 0.00
7:53 am 07:53 Mostly Cloudy 71 21.7 66 18.9 84 84 NE 5 7 30.12 1020 10 16 0.00 0.00
8:53 am 08:53 Mostly Cloudy 74 23.3 67 19.4 79 79 NE 5 7 30.14 1021 10 16 0.00 0.00
9:11 am 09:11 Mostly Cloudy 76 24.4 67 19.4 74 74 ENE 7 11 30.13 1020 10 16 0.00 0.00
9:21 am 09:21 Mostly Cloudy 77 25 67 19.4 71 71 ENE 6 9 30.14 1021 10 16 0.00 0.00
9:53 am 09:53 Mostly Cloudy 78 25.6 68 20 71 71 ENE 10 17 30.15 1021 10 16 0.00 0.00
10:53 am 10:53 Mostly Cloudy 80 26.7 68 20 67 67 E 8 13 30.14 1021 10 16 0.00 0.00
11:53 am 11:53 Mostly Cloudy 82 27.8 68 20 63 63 E 9 15 30.14 1021 10 16 0.00 0.00
12:53 pm 12:53 Partly Cloudy 86 30 66 18.9 51 51 E 13 20 30.12 1020 10 16 0.00 0.00
1:53 pm 13:53 Sunny 88 31.1 65 18.3 46 46 ENE 9 15 30.10 1019 10 16 0.00 0.00
2:53 pm 14:53 Partly Cloudy 87 30.6 65 18.3 48 48 E 9 15 30.07 1018 10 16 0.00 0.00
3:53 pm 15:53 Mostly Cloudy 87 30.6 65 18.3 48 48 ENE 8 13 30.05 1018 10 16 0.00 0.00
4:53 pm 16:53 Mostly Cloudy 87 30.6 64 17.8 46 46 E 8 13 30.04 1017 10 16 0.00 0.00
5:53 pm 17:53 Mostly Sunny 87 30.6 65 18.3 48 48 E 7 11 30.04 1017 10 16 0.00 0.00
6:53 pm 18:53 Sunny 86 30 65 18.3 49 49 ESE 6 9 30.04 1017 10 16 0.00 0.00
7:53 pm 19:53 Sunny 85 29.4 65 18.3 51 51 E 5 7 30.04 1017 10 16 0.00 0.00
8:53 pm 20:53 Clear 83 28.3 65 18.3 55 55 E 6 9 30.05 1018 10 16 0.00 0.00
9:53 pm 21:53 Clear 79 26.1 65 18.3 62 62 Calm 30.06 1018 10 16 0.00 0.00
10:53 pm 22:53 Clear 81 27.2 64 17.8 57 57 E 5 7 30.08 1019 10 16 0.00 0.00
11:53 pm 23:53 Clear 75 23.9 65 18.3 71 71 Calm 30.07 1018 10 16 0.00 0.00

Powered by AerisWeather